Location: Peebles
(55.6412°N, 3.1714°W)
Time: 15:55:04
(UTC+01:00)

deb Agena D - Pass Details

Date: 23 September 2024
Orbit: 793 x 976 km, 99.8° (Epoch: 03 October)

Event Time Altitude Azimuth Distance (km) Brightness Sun altitude
Rises 02:12:19 0° 24° (NNE) 3,481 10.5 -32.9°
Reaches altitude 10° 02:15:11 10° 39° (NE) 2,570 9.5 -32.8°
Maximum altitude 02:19:44 24° 91° (E) 1,819 8.0 -32.5°
Enters shadow 02:20:21 23° 101° (E) 1,841 8.0 -32.5°
